sat.trackr.live / text

‹ back to catalog

AE1C

NORAD 62649 · 2025-009AS

PAYLOAD ACTIVE UNKNOWN

§ Identity

Operator
Country
JPN
Launch date
2025-01-14
Launch site
AFWTR
Launch vehicle
Mass (kg)
RCS (m²)

External: N2YO · Heavens-Above · Gunter

§ Orbital elements

Epoch: 2026-09-22T21:31:05.585952Z

Period
92.82 min
Inclination
97.3990°
Eccentricity
0.0000396
Mean motion
15.51402789 rev/d
Perigee alt
412.4 km
Apogee alt
412.9 km
Semi-major
6,790.8 km
B*
5.3432e-4
RAAN
355.8503°
Arg perigee
60.0011°
Mean anomaly
300.1281°
Rev number
9,440

§ Raw data

AE1C1 62649U 25009AS  26265.89659243  .00031448  00000+0  53432-3 0  99992 62649  97.3990 355.8503 0000396  60.0011 300.1281 15.51402789 94405

JSON: /api/v1/satellites/62649 · /tle

For live sub-satellite position, see the globe view (requires WebGL).

§ Visibility from observer

Set your observer location to see the next 7 days of passes ≥ 10°. The values pass through the URL so the page stays shareable.

No JS? Fill the form by hand. The geolocation button needs JavaScript.